Seattle Weather Center

Moon Phase Calendar



Online Cameras

 


      

Current Conditions in Seattle
9/28/2021 7:16:52 PM

54°F
Feels Like 53
Clouds
Humidity
74%
Pressure
30.03"
Wind
3 mph (SW)
Dew Point
46°F
UV Index
0/10 (Low)
Visibility
6 mi

Hourly Forecast

Date & Time Tue, Sep 28
7:00 PM
Tue, Sep 28
8:00 PM
Tue, Sep 28
9:00 PM
Tue, Sep 28
10:00 PM
Tue, Sep 28
11:00 PM
Wed, Sep 29
12:00 AM
Wed, Sep 29
1:00 AM
Wed, Sep 29
2:00 AM
Wed, Sep 29
3:00 AM
Wed, Sep 29
4:00 AM
Wed, Sep 29
5:00 AM
Wed, Sep 29
6:00 AM
Wed, Sep 29
7:00 AM
Wed, Sep 29
8:00 AM
Wed, Sep 29
9:00 AM
Wed, Sep 29
10:00 AM
Wed, Sep 29
11:00 AM
Wed, Sep 29
12:00 PM
Wed, Sep 29
1:00 PM
Wed, Sep 29
2:00 PM
Wed, Sep 29
3:00 PM
Wed, Sep 29
4:00 PM
Wed, Sep 29
5:00 PM
Wed, Sep 29
6:00 PM
Wed, Sep 29
7:00 PM
Wed, Sep 29
8:00 PM
Wed, Sep 29
9:00 PM
Wed, Sep 29
10:00 PM
Wed, Sep 29
11:00 PM
Thu, Sep 30
12:00 AM
Thu, Sep 30
1:00 AM
Thu, Sep 30
2:00 AM
Thu, Sep 30
3:00 AM
Thu, Sep 30
4:00 AM
Thu, Sep 30
5:00 AM
Thu, Sep 30
6:00 AM
Thu, Sep 30
7:00 AM
Thu, Sep 30
8:00 AM
Thu, Sep 30
9:00 AM
Thu, Sep 30
10:00 AM
Thu, Sep 30
11:00 AM
Thu, Sep 30
12:00 PM
Thu, Sep 30
1:00 PM
Thu, Sep 30
2:00 PM
Thu, Sep 30
3:00 PM
Thu, Sep 30
4:00 PM
Thu, Sep 30
5:00 PM
Thu, Sep 30
6:00 PM
Condition
Rain

Clouds

Clouds

Clouds

Clouds

Clouds

Clouds

Clouds

Clouds

Clouds

Clouds

Clouds

Clouds

Clouds

Clouds

Clouds

Clouds

Clouds

Clouds

Clouds

Clouds

Rain

Rain

Clouds

Clouds

Clouds

Clouds

Rain

Rain

Clouds

Clouds

Rain

Rain

Rain

Rain

Rain

Rain

Rain

Rain

Rain

Rain

Rain

Rain

Rain

Rain

Rain

Rain

Rain
Temperature 54°F54°F53°F52°F50°F48°F47°F47°F47°F47°F46°F46°F46°F47°F50°F52°F54°F55°F54°F53°F53°F52°F51°F51°F51°F51°F51°F51°F51°F51°F52°F52°F53°F53°F54°F54°F55°F56°F56°F56°F55°F54°F54°F57°F58°F58°F59°F57°F
Feels Like 53°F53°F51°F50°F47°F45°F44°F44°F45°F45°F44°F44°F44°F45°F48°F51°F52°F53°F52°F51°F51°F50°F50°F50°F50°F50°F50°F50°F50°F51°F51°F51°F52°F53°F54°F54°F55°F55°F56°F55°F55°F54°F54°F56°F57°F58°F58°F57°F
Cloudiness 40%48%57%64%63%56%58%68%76%81%81%83%91%94%96%97%97%100%100%100%100%100%100%100%100%100%100%100%100%100%100%100%100%100%100%100%100%99%99%99%99%100%100%100%100%99%97%38%
Visibility 6 mi6 mi6 mi6 mi6 mi6 mi6 mi6 mi6 mi6 mi6 mi6 mi6 mi6 mi6 mi6 mi6 mi6 mi6 mi6 mi6 mi6 mi6 mi6 mi6 mi6 mi6 mi6 mi6 mi6 mi6 mi6 mi6 mi6 mi5 mi6 mi6 mi6 mi6 mi6 mi6 mi5 mi6 mi6 mi6 mi6 mi6 mi6 mi
Precipitation 79%65%65%59%55%8%5%5%6%3%0%0%0%0%0%0%0%3%3%14%18%37%24%55%30%25%29%33%53%39%50%71%89%92%96%92%94%100%100%100%100%100%100%100%100%100%99%50%
Humidity 74%76%78%79%82%86%88%88%87%86%88%88%87%83%76%68%62%59%64%67%71%79%82%85%86%86%85%87%91%92%92%93%94%95%96%96%97%96%96%97%96%98%98%90%88%85%83%86%
Dew Point 46°F47°F46°F45°F45°F44°F44°F44°F44°F43°F43°F43°F42°F42°F43°F42°F42°F41°F42°F43°F44°F46°F46°F47°F47°F47°F47°F48°F49°F49°F50°F50°F51°F52°F53°F53°F54°F55°F55°F55°F54°F53°F53°F54°F54°F54°F54°F53°F
Pressure 30.03"30.03"30.03"30.06"30.09"30.09"30.12"30.12"30.12"30.09"30.09"30.12"30.09"30.09"30.09"30.09"30.09"30.09"30.09"30.09"30.09"30.09"30.09"30.09"30.09"30.06"30.06"30.06"30.06"30.06"30.06"30.03"30.03"30.03"30.03"30.03"30.03"30.03"30.03"30.06"30.12"30.12"30.15"30.18"30.18"30.18"30.18"30.18"
Wind Speed 5.1 mph5 mph6.3 mph7.6 mph7.2 mph6.3 mph5.5 mph5 mph5.2 mph4.8 mph4.8 mph5.1 mph4.6 mph4.8 mph5.9 mph5.9 mph6 mph6.6 mph5.6 mph4.5 mph3.9 mph3.5 mph2.8 mph3.1 mph3.2 mph3.1 mph3.6 mph3.5 mph4.2 mph4.2 mph4.3 mph5.8 mph5.4 mph4.6 mph4.8 mph6.9 mph7.2 mph6.9 mph4 mph3.8 mph6.1 mph0.4 mph2.9 mph5.1 mph5.5 mph5 mph4.1 mph3 mph
Wind
Direction
192°
SSW
173°
S
182°
S
185°
S
181°
S
175°
S
164°
SSE
153°
SSE
155°
SSE
143°
SE
142°
SE
141°
SE
137°
SE
154°
SSE
154°
SSE
169°
S
183°
S
190°
S
197°
SSW
194°
SSW
194°
SSW
170°
S
162°
SSE
179°
S
172°
S
166°
SSE
188°
S
197°
SSW
188°
S
159°
SSE
183°
S
159°
SSE
166°
SSE
193°
SSW
190°
S
169°
S
186°
S
162°
SSE
194°
SSW
252°
WSW
259°
W
277°
W
149°
SSE
183°
S
195°
SSW
182°
S
180°
S
162°
SSE

Daily Forecast

Date High Low Precip. Humidity
Today
Sep 28

Rain
60 °F
50 °F
97%
71%
Wednesday
Sep 29

Rain
55 °F
46 °F
55%
59%
Thursday
Sep 30

Rain
59 °F
49 °F
100%
96%
Friday
Oct 1

Clouds
60 °F
47 °F
14%
80%
Saturday
Oct 2

Clouds
63 °F
45 °F
0%
67%
Sunday
Oct 3

Clouds
68 °F
47 °F
0%
57%
Monday
Oct 4

Clouds
72 °F
49 °F
0%
52%
Tuesday
Oct 5

Clouds
71 °F
52 °F
0%
55%
Wednesday
Oct 6

Clouds
71 °F
53 °F
0%
57%
Thursday
Oct 7

Clouds
72 °F
55 °F
0%
57%
Friday
Oct 8

Rain
69 °F
54 °F
67%
68%
Saturday
Oct 9

Clouds
63 °F
50 °F
52%
74%
Sunday
Oct 10

Rain
54 °F
45 °F
100%
83%
Monday
Oct 11

Rain
54 °F
43 °F
89%
73%
Tuesday
Oct 12

Clouds
53 °F
42 °F
5%
69%
Wednesday
Oct 13

Clouds
56 °F
39 °F
0%
61%

Temperature 8-14 Day Outlook



Precipitation 8-14 Day Outlook




Quick Links
Seattle News
Seattle Photos
Seattle Videos




About Us
Contact Us
Site Map
Search Site
Advertise With Us
   
Seattle.USCoast.info
THE SEATTLE WEBSITE

Copyright 2021, Coastal Town
Privacy    |    Legal